Flag for Brazil Weather past 2 weeks in São Paulo, São Paulo, Brazil

70 °F

Rain. Broken clouds.

Feels Like: 70 °F
Forecast: 69 / 79 °F
Wind: 14 mph from Southeast

Location: Sao Paulo Airport

Current Time: Nov 29, 2015 at 2:59:25 PM

Latest Report: Nov 29, 2015 at 2:00 PM

Visibility: 6 mi

Pressure: 30.04 "Hg (27.49 "Hg at 765m altitude)

Humidity: 88%

Dew point: 66 °F

Location of São PauloLocation

Historic Weather in São Paulo — Graph


São Paulo temperature yesterday

Maximum temperature yesterday: 86 °F (at 4:00 PM)
Minimum temperature yesterday: 34 °F (at 11:00 PM)
Average temperature yesterday: 73 °F

Past Weeks' High & Low Weather Summary

High88 °F (Nov 19, 3:00 PM)100% (Nov 23, 5:00 PM)30.12 "Hg (Nov 23, 5:00 PM)
Low34 °F (Nov 23, 5:00 PM)25% (Nov 23, 12:00 PM)29.74 "Hg (Nov 19, 5:00 PM)
Average72 °F76%29.95 "Hg
* Reported Nov 14 1:00 PM — Nov 29 1:00 PM, São Paulo, Weather by CustomWeather, © 2015

Note: Actual official high and low records may vary slightly from our data, if they occured in-between our weather recording intervals... More about our weather records


São Paulo weather history for previous 24 hours

Time TempWeatherWind HumidityBarometerVisibility
1:00 PM
Sun, Nov 29
70 °FLight rain. Broken clouds.5 mph94%30.04 "HgN/A
12:00 PM81 °FBroken clouds.8 mph62%30.04 "HgN/A
11:00 AM77 °FPartly sunny.8 mph69%30.04 "HgN/A
10:00 AM75 °FPartly sunny.8 mph74%30.04 "HgN/A
9:00 AM75 °FSunny.3 mph74%30.01 "Hg10 mi
8:00 AM72 °FSunny.5 mph83%30.01 "Hg10 mi
7:00 AM70 °FSunny.5 mph83%29.98 "Hg10 mi
6:00 AM70 °FClear.6 mph83%29.95 "Hg10 mi
5:00 AM70 °FPassing clouds.6 mph83%29.95 "HgN/A
4:00 AM70 °FPassing clouds.5 mph88%29.95 "HgN/A
3:00 AM70 °FPassing clouds.5 mph88%29.98 "Hg4 mi
2:00 AM70 °FPassing clouds.6 mph88%29.98 "HgN/A
1:00 AM70 °FRain. Passing clouds.5 mph88%30.01 "Hg6 mi
12:00 AM70 °FLight rain. Overcast.6 mph88%30.01 "HgN/A
11:03 PM
Sat, Nov 28
70 °FThunderstorms. Passing clouds.3 mph83%30.04 "HgN/A
11:00 PM34 °FThunderstorms. Passing clouds.8 mph100%30.04 "Hg5 mi
10:00 PM72 °FThunderstorms. Passing clouds.7 mph83%N/A4 mi
9:00 PMN/AThundershowers.12 mphN/AN/A5 mi
8:00 PM75 °FPassing clouds.9 mph78%29.92 "Hg4 mi
7:00 PM79 °FPartly sunny.10 mph70%29.92 "HgN/A
6:00 PM86 °FPartly sunny.6 mph52%29.89 "HgN/A
5:00 PM86 °FScattered clouds.7 mph52%29.89 "HgN/A
4:00 PM86 °FPartly sunny.14 mph52%29.92 "HgN/A
3:00 PM84 °FPartly sunny.15 mph55%29.92 "HgN/A
2:00 PM84 °FScattered clouds.16 mph55%29.92 "HgN/A
Weather by CustomWeather, © 2015

See weather overviewHow to use our weather pages